Regional Weather Roundup
Issued by NWS Jackson, KY

Home | Current Version | Previous Version | Graphics & Text | Print | Product List | Glossary On
Versions: 1 2 3 4 5 6 7 8 9 10 11 12 13 14 15 16 17 18 19 20 21 22 23 24 25 26 27
000
ASUS43 KJKL 261110
RWRJKL

EAST KENTUCKY HOURLY WEATHER ROUNDUP
NATIONAL WEATHER SERVICE JACKSON KY
600 AM EST SUN FEB 26 2017

NOTE: "FAIR" INDICATES FEW OR NO CLOUDS BELOW 12,000 FEET WITH
NO SIGNIFICANT WEATHER AND/OR OBSTRUCTIONS TO VISIBILITY.

* THESE REPORTS ARE NOT UNDER NWS QUALITY CONTROL AND MAY NOT
  REPORT WEATHER SUCH AS PRECIPITATION AND FOG.

KYZ079-080-083-085-087-088-110-112-115-119-120-261200
...EASTERN KENTUCKY...

CITY           SKY/WX    TMP DP  RH WIND       PRES   REMARKS
JACKSON        CLEAR     25  18  74 VRB3      30.14R
LONDON         CLEAR     23  20  88 CALM      30.16R
SOMERSET*      CLEAR     23  23 100 CALM      30.21R
MONTICELLO*    CLEAR     17  15  92 W6        30.21R WCI   9
WILLIAMSBURG*  SUNNY     23  23 100 CALM      30.17R
MIDDLESBORO*   CLEAR     25  22  91 CALM      30.18R
HARLAN APT*    SUNNY     27  23  86 CALM      30.15R
PIKE CO APT*     N/A     28  19  70 CALM      30.13R
BIG SANDY APT* SUNNY     29  19  67 SW3       30.14R
MOREHEAD APT*  SUNNY     27  16  63 W3        30.17R
ASHLAND*       CLEAR     28  19  69 CALM      30.14R
$$

KYZ035-036-041-042-044-050-067-078-099-261200
...CENTRAL KENTUCKY...

CITY           SKY/WX    TMP DP  RH WIND       PRES   REMARKS
FLEMING/MASON* CLEAR     23  17  77 W6        30.17R WCI  16
DANVILLE*      CLEAR     27  18  69 W3        30.19R
LEXINGTON      CLEAR     24  16  71 W5        30.17R WCI  18
FRANKFORT      CLEAR     22  14  71 SW5       30.17R WCI  16
LOUISVILLE     CLEAR     28  14  55 W3        30.20R
LEBANON*         N/A     27  18  69 CALM      30.19R
GLASGOW*       CLEAR     22  22 100 CALM      30.21R
BOWLING GREEN  CLEAR     25  20  81 CALM      30.22R
$$

KYZ091>093-OHZ055-061-077-WVZ005-015-034-035-042-261200
...SOUTHERN OHIO/WEST VIRGINIA...

CITY           SKY/WX    TMP DP  RH WIND       PRES   REMARKS
COVINGTON      CLEAR     23  15  71 W5        30.14R WCI  17
COLUMBUS       CLOUDY    30  16  56 NW12      30.10R WCI  20
DAYTON         PTCLDY    23  15  71 W7        30.12R WCI  15
WILMINGTON     CLOUDY    25  15  66 W8        30.11R WCI  16
HUNTINGTON     CLEAR     28  17  63 SW5       30.14R WCI  23
CHARLESTON     CLEAR     30  16  56 SW7       30.12R WCI  23
PINEVILLE*       N/A     29  16  57 MISG      30.13R
BECKLEY        CLOUDY    25  14  63 NW9       30.03R WCI  15
BLUEFIELD      MOCLDY    23  13  65 W10G22    30.02R WCI  12
LOGAN CO APT*  CLOUDY    28  16  59 W6        30.10R WCI  22
$$

VAZ002-007-008-TNZ017-027-036-066-071-261200
...SOUTHWEST VIRGINIA/EAST TENNESSEE...

CITY           SKY/WX    TMP DP  RH WIND       PRES   REMARKS
WISE*          CLEAR     27  18  69 CALM      30.08R
JONESVILLE*      N/A     23  23 100 CALM      30.18R
ABINGDON*      CLEAR     27  19  73 W5        30.10R WCI  21
BRISTOL        CLEAR     26  18  71 SW6       30.14R WCI  19
MORRISTOWN*    MOSUNNY   27  21  80 SW3       30.16R
SEVIERVILLE*   SUNNY     25  19  80 CALM      30.18R
KNOXVILLE      CLEAR     29  23  78 CALM      30.18R
LAFOLLETTE*    SUNNY     25  23  93 CALM      30.20R
OAK RIDGE      CLEAR     28  22  78 CALM      30.20R
CROSSVILLE     CLEAR     23  17  78 W3        30.15R
NASHVILLE      CLEAR     28  22  78 S3        30.22R
$$

...KEY TO REMARKS...
VSB - VISIBILITY IN MILES
WCI - WIND CHILL INDEX
HX  - HEAT INDEX

$$




USA.gov is the U.S. government's official web portal to all federal, state and local government web resources and services.